Gloucester, Virginia, United States (23061)
Lat: 37.41N, Lon: 76.53W
Wx Zone: VAZ084
Local Info
Past Weather Observations for Today

NOTE: This archive is for the closest National Weather Service station to Gloucester. Information may differ from the station used for current weather conditions.

Click here for Long-term Archive

Time Weather Temperature Dewpoint Humidity Pressure Winds Precip Visibility
15:55
Overcast
57°F / 14°C 37°F / 3°C 48% 29.86 in
(1011 mb)
Calm - 10SM
15:35
Overcast
59°F / 15°C 36°F / 2°C 42% 29.86 in
(1011 mb)
N 4.6 mph
(N 7 kph)
- 10SM
15:15
Overcast
59°F / 15°C 36°F / 2°C 42% 29.86 in
(1011 mb)
N 3.5 mph
(N 6 kph)
- 10SM
14:55
Overcast
59°F / 15°C 36°F / 2°C 42% 29.86 in
(1011 mb)
NE 3.5 mph
(NE 6 kph)
- 10SM
14:35
Overcast
61°F / 16°C 34°F / 1°C 36% 29.86 in
(1011 mb)
N 5.8 mph
(N 9 kph)
- 10SM
14:15
Overcast
59°F / 15°C 36°F / 2°C 42% 29.89 in
(1012 mb)
N 3.5 mph
(N 6 kph)
- 10SM
13:55
Overcast
59°F / 15°C 37°F / 3°C 45% 29.89 in
(1012 mb)
NW 6.9 mph
(NW 11 kph)
- 10SM
13:35
Overcast
59°F / 15°C 36°F / 2°C 42% 29.89 in
(1012 mb)
N 4.6 mph
(N 7 kph)
- 10SM
13:15
Overcast
59°F / 15°C 36°F / 2°C 42% 29.89 in
(1012 mb)
NE 6.9 mph
(NE 11 kph)
- 10SM
12:55
Overcast
61°F / 16°C 36°F / 2°C 39% 29.92 in
(1013 mb)
N 4.6 mph
(N 7 kph)
- 10SM
12:35
Mostly Cloudy
61°F / 16°C 34°F / 1°C 36% 29.92 in
(1013 mb)
N 4.6 mph
(N 7 kph)
- 10SM
12:15
Mostly Cloudy
59°F / 15°C 36°F / 2°C 42% 29.92 in
(1013 mb)
ENE 5.8 mph
(ENE 9 kph)
- 10SM
11:55
Mostly Cloudy
61°F / 16°C 36°F / 2°C 39% 29.92 in
(1013 mb)
NNW 4.6 mph
(NNW 7 kph)
- 10SM
11:35
Mostly Cloudy
61°F / 16°C 37°F / 3°C 42% 29.95 in
(1014 mb)
NE 4.6 mph
(NE 7 kph)
- 10SM
11:15
Partly Cloudy
61°F / 16°C 37°F / 3°C 42% 29.95 in
(1014 mb)
ENE 8.1 mph
(ENE 13 kph)
- 10SM
10:55
Clear
61°F / 16°C 39°F / 4°C 45% 29.95 in
(1014 mb)
N 6.9 mph
(N 11 kph)
- 10SM
10:35
Clear
59°F / 15°C 43°F / 6°C 55% 29.95 in
(1014 mb)
N 4.6 mph
(N 7 kph)
- 10SM
10:15
Clear
57°F / 14°C 46°F / 8°C 67% 29.95 in
(1014 mb)
NNW 3.5 mph
(NNW 6 kph)
- 10SM
09:55
Clear
54°F / 12°C 46°F / 8°C 77% 29.95 in
(1014 mb)
NNW 5.8 mph
(NNW 9 kph)
- 10SM
09:35
Clear
54°F / 12°C 46°F / 8°C 77% 29.98 in
(1015 mb)
NNW 3.5 mph
(NNW 6 kph)
- 10SM
09:15
Clear
52°F / 11°C 48°F / 9°C 88% 29.98 in
(1015 mb)
NW 4.6 mph
(NW 7 kph)
- 10SM
08:55
Clear
52°F / 11°C 46°F / 8°C 82% 29.98 in
(1015 mb)
NW 3.5 mph
(NW 6 kph)
- 10SM
08:35
Clear
50°F / 10°C 46°F / 8°C 88% 29.98 in
(1015 mb)
NW 3.5 mph
(NW 6 kph)
- 10SM
08:15
Clear
50°F / 10°C 46°F / 8°C 88% 30.01 in
(1016 mb)
NW 3.5 mph
(NW 6 kph)
- 10SM
07:55
Clear
48°F / 9°C 46°F / 8°C 94% 30.01 in
(1016 mb)
Calm - 10SM
07:35
Clear
46°F / 8°C 43°F / 6°C 87% 30.01 in
(1016 mb)
Calm - 10SM
07:15
Clear
45°F / 7°C 41°F / 5°C 87% 29.98 in
(1015 mb)
Calm - 10SM
06:55
Clear
43°F / 6°C 41°F / 5°C 93% 29.98 in
(1015 mb)
Calm - 10SM
06:35
Clear
43°F / 6°C 41°F / 5°C 93% 30.01 in
(1016 mb)
Calm - 10SM
06:15
Clear
43°F / 6°C 39°F / 4°C 87% 30.01 in
(1016 mb)
Calm - 10SM
05:55
Clear
43°F / 6°C 39°F / 4°C 87% 30.01 in
(1016 mb)
Calm - 10SM
05:35
Clear
45°F / 7°C 41°F / 5°C 87% 30.01 in
(1016 mb)
Calm - 10SM
05:15
Partly Cloudy
46°F / 8°C 41°F / 5°C 82% 30.01 in
(1016 mb)
Calm - 10SM
04:55
Partly Cloudy
46°F / 8°C 43°F / 6°C 87% 30.01 in
(1016 mb)
NNW 4.6 mph
(NNW 7 kph)
- 10SM
04:35
Mostly Cloudy
45°F / 7°C 43°F / 6°C 93% 30.01 in
(1016 mb)
NNW 4.6 mph
(NNW 7 kph)
- 10SM
04:15
Overcast
45°F / 7°C 41°F / 5°C 87% 30.01 in
(1016 mb)
Calm - 10SM
03:55
Overcast
45°F / 7°C 43°F / 6°C 93% 30.01 in
(1016 mb)
Calm - 10SM
03:35
Overcast
43°F / 6°C 41°F / 5°C 93% 30.01 in
(1016 mb)
NNW 3.5 mph
(NNW 6 kph)
- 10SM
03:15
Mostly Cloudy
45°F / 7°C 43°F / 6°C 93% 30.04 in
(1017 mb)
Calm - 10SM
02:55
Clear
41°F / 5°C 39°F / 4°C 93% 30.01 in
(1016 mb)
Calm - 10SM
02:35
Clear
37°F / 3°C 36°F / 2°C 93% 30.01 in
(1016 mb)
Calm - 10SM
02:15
Clear
39°F / 4°C 37°F / 3°C 93% 30.01 in
(1016 mb)
Calm - 10SM
01:55
Clear
41°F / 5°C 37°F / 3°C 87% 30.01 in
(1016 mb)
Calm - 10SM
01:35
Clear
39°F / 4°C 36°F / 2°C 87% 30.04 in
(1017 mb)
Calm - 10SM
01:15
Clear
39°F / 4°C 37°F / 3°C 93% 30.04 in
(1017 mb)
Calm - 10SM
00:55
Clear
43°F / 6°C 39°F / 4°C 87% 30.04 in
(1017 mb)
Calm - 10SM
00:35
Clear
43°F / 6°C 41°F / 5°C 93% 30.04 in
(1017 mb)
Calm - 10SM
00:15
Clear
43°F / 6°C 39°F / 4°C 87% 30.04 in
(1017 mb)
Calm - 10SM
Time Weather Temperature Dewpoint Humidity Pressure Winds Precip Visibility


Weather for websites

WeatherForYou.com, LLC is not responsible for any damages or problems caused by this service. Current weather conditions are obtained from the closest station including government and personal stations which may have varying degrees of accuracy. Weather forecasts are derived from the NOAA NDFD. Like all things, this site belongs to Jesus Christ... He just trusts me to maintain it. If you have any questions or comments email webmaster@weatherforyou.com

Copyright © 2014, WeatherForYou.com LLC. All rights reserved.